www.pogodaiklimat.ru

Погода и климат >> Архив погоды >> Россия >> Дагестан >> Махачкала


АРХИВ ПОГОДЫ в Махачкале

Время (UTC), дата Ветер
(напр.,м/с)
 
Видим.   Явления Облачность Т
(С)
Тd
(С)
f
(%)
Тe
(С)
Тes
(С)
Комфортность P
(гПа)
Po
(гПа)
Тmin
(С)
Tmax
(С)
R
(мм)
S
(см)
03 16.03 З 1 н/о н/о +5.1 +3.6 90 +4 +4 по сезону 1013.6 1015.9 +4.2
06 16.03 З 3 4000 м дымка 10/4 600 м
[Sc Ac As]
+8.0 +5.1 82 +5 +6 по сезону 1014.4 1016.6
09 16.03 СЗ 3 4000 м дымка 9/4 600 м
[Sc Ac As Ci fib]
+11.3 +4.8 64 +10 +13 тепло 1013.1 1015.3
12 16.03 В 2 4000 м дымка 10/6 600 м
[Sc Ac As]
+7.5 +4.7 82 +5 +6 по сезону 1012.3 1014.5
15 16.03 В 1 4000 м дымка 10/6 600 м
[Sc Ac As]
+7.1 +4.6 84 +6 +6 тепло 1012.7 1014.9 +11.8
18 16.03 З 2 4000 м слабый дождь 10/10 600 м
[Frnb Ns]
+8.1 +6.0 87 +6 +6 тепло 1013.3 1015.5
21 16.03 З 2 4000 м слабый дождь 10/10 600 м
[Frnb Ns]
+7.6 +5.3 85 +6 +6 тепло 1013.5 1015.7
00 17.03 З 3 10 км {дождь} 9/4 600 м
[Sc Ac As Ci fib]
+7.4 +3.6 77 +5 +5 тепло 1013.4 1015.6
03 17.03 З 3 20 км 9/4 600 м
[Sc Ac cast Ci fib]
+6.5 +3.0 78 +4 +4 по сезону 1014.3 1016.6 +6.0 3
06 17.03 СЗ 5 20 км 8/3 600 м
[Sc Ac trans Ci fib]
+10.1 +4.7 69 +7 +9 тепло 1015.5 1017.7
09 17.03 СЗ 4
{10}
20 км 9/4 600 м
[Sc diur, vesp Ac und Ci fib]
+13.2 +3.5 52 +12 +15 тепло 1015.4 1017.6
12 17.03 ЮВ 2 20 км 8/3 600 м
[Cb calv Ac trans Ci fib]
+9.2 +3.7 68 +8 +10 тепло 1015.5 1017.7
15 17.03 ЮВ 3 20 км 4/3 600 м
[Sc Ac trans Ci fib]
+8.0 +3.3 72 +5 +5 по сезону 1016.1 1018.3 +13.9
18 17.03 ЮВ 2 20 км 4/3 600 м
[Sc Ac trans Ci fib]
+8.1 +2.7 69 +6 +6 тепло 1016.4 1018.6
21 17.03 ЮВ 2 20 км 3/0
[Ac trans Ci fib]
+8.5 +2.4 65 +7 +7 тепло 1015.1 1017.3
00 18.03 ЮВ 3 20 км 3/0
[Ci fib]
+8.3 +2.6 67 +6 +6 тепло 1013.8 1016.0
03 18.03 ЮВ 5 20 км 8/0
[Ci fib]
+7.3 +2.8 73 +4 +4 по сезону 1013.5 1015.7 +7.2
06 18.03 В 6 10 км 5/0
[Ac As Ci fib]
+7.8 +4.8 81 +4 +5 по сезону 1012.9 1015.1
09 18.03 В 6-11
{12}
20 км ясно +8.9 +4.0 71 +5 +10 по сезону 1011.0 1013.2
12 18.03 В 6
{13}
10 км ясно +7.2 +4.9 85 +3 +5 по сезону 1010.0 1012.2
15 18.03 В 3 4000 м дымка ясно +6.9 +5.2 89 +4 +4 по сезону 1009.7 1011.9 +9.0
18 18.03 С 1 4000 м дымка 10/6 600 м
[Sc Ac As]
+7.1 +5.8 91 +6 +6 тепло 1010.8 1013.0
21 18.03 З 3 4000 м дымка 10/8 600 м
[Sc Ac As]
+7.2 +6.1 93 +4 +4 по сезону 1011.1 1013.3
00 19.03 З 5 4000 м дымка 10/8 600 м
[Sc Ac As]
+7.1 +5.8 91 +3 +3 по сезону 1011.0 1013.3
03 19.03 З 5 4000 м дождь 10/10 600 м
[Frnb Ns]
+6.5 +5.1 91 +2 +2 по сезону 1013.3 1015.5 +6.5 3
06 19.03 СЗ 5 4000 м дымка {дождь} 8/3 600 м
[Sc Ac As Ci fib]
+8.2 +5.2 81 +5 +6 по сезону 1013.7 1015.9 +6.5
09 19.03 СВ 4 н/о н/о +7.4 +5.5 88 +4 +4 по сезону 1012.9 1015.1
12 19.03 В 3 4000 м дымка 10/5 600 м
[Sc Ac As]
+6.5 +4.6 88 +3 +4 по сезону 1011.7 1014.0
15 19.03 В 2 4000 м дымка 10/3 600 м
[Sc Ac As]
+5.7 +4.3 91 +3 +3 по сезону 1011.3 1013.5 +10.1 0.0
18 19.03 В 4 н/о н/о +5.7 +4.5 92 +2 +2 по сезону 1010.8 1013.0
21 19.03 В 4 н/о н/о +5.0 +4.0 93 +1 +1 по сезону 1008.8 1011.0
00 20.03 ЮВ 5 500 м туман н/о +4.7 +3.7 93 -0 -0 по сезону 1006.1 1008.3
03 20.03 ЮВ 4 2000 м в посл. час туман 10/8 600 м
[Sc Ac As]
+4.2 +3.3 94 -0 -0 по сезону 1005.3 1007.5 +4.2
06 20.03 ЮВ 4 2000 м дымка {туман} 10/8 600 м
[St As trans]
+4.8 +3.9 94 0 +1 по сезону 1004.2 1006.5 +4.1
09 20.03 В 4 2000 м дымка 10/8 600 м
[Sc Ac As]
+5.9 +4.5 91 +2 +2 по сезону 1003.5 1005.7
12 20.03 ЮВ 1 4000 м дымка 10/8 600 м
[Sc Ac As]
+6.9 +4.3 83 +6 +6 по сезону 1003.6 1005.8
15 20.03 З 4 4000 м дымка 10/6 600 м
[Sc Ac As]
+7.4 +4.7 83 +4 +4 по сезону 1005.6 1007.8 +7.4
18 20.03 СЗ 5 4000 м дымка 10/6 600 м
[Sc Ac As]
+6.9 +4.1 82 +3 +3 по сезону 1007.3 1009.5
21 20.03 СЗ 7-11
{15}
4000 м дымка 9/4 600 м
[Sc Ac As Ci fib]
+7.1 +3.5 78 +2 +2 по сезону 1007.8 1010.0
00 21.03 З 12-19
{22}
4000 м дымка 8/3 600 м
[Sc Ac cast Ci fib]
+6.7 +1.4 69 +1 +1 по сезону 1008.6 1010.8
03 21.03 З 12-18
{21}
20 км 9/4 600 м
[Sc Ac As Ci fib]
+7.1 -0.3 59 +1 +1 по сезону 1009.3 1011.5 +6.3
06 21.03 З 11-18
{22}
20 км 9/3 600 м
[Sc Ac trans Ci fib]
+8.7 -1.4 49 +4 +4 по сезону 1010.6 1012.8
09 21.03 СЗ 10-20
{22}
20 км 9/4 600 м
[Sc Ac trans Ci fib]
+10.6 -0.8 45 +7 +7 по сезону 1010.5 1012.7
12 21.03 СЗ 10-15
{20}
20 км 9/8 600 м
[Sc Ac trans Ci fib]
+11.2 -2.5 38 +8 +8 тепло 1010.6 1012.7
15 21.03 СЗ 6
{16}
20 км 9/4 600 м
[Sc Ac trans Ci fib]
+9.5 -0.0 51 +6 +6 по сезону 1011.7 1013.9 +11.2
18 21.03 З 5 20 км 8/3 600 м
[Sc Ac trans Ci fib]
+9.7 -2.4 43 +7 +7 тепло 1012.5 1014.7
21 21.03 З 4 20 км 6/0
[Ac trans Ci fib]
+7.6 -1.6 52 +5 +5 по сезону 1013.5 1015.7
00 22.03 З 3 20 км 3/0
[Ci fib]
+6.7 +0.7 66 +4 +4 по сезону 1014.1 1016.3
03 22.03 СЗ 5 20 км 9/6 600 м
[Sc Ac trans Ci fib]
+6.9 -0.9 58 +3 +3 по сезону 1015.8 1018.0 +6.6
06 22.03 З 2 20 км 10/8 600 м
[Sc Ac As]
+8.8 -1.7 48 +8 +8 тепло 1016.5 1018.7
09 22.03 ЮВ 2 20 км 10/8 600 м
[Sc Ac As]
+10.5 +0.4 50 +10 +10 тепло 1016.0 1018.2
12 22.03 ЮВ 4 20 км 10/8 600 м
[Sc Ac As]
+9.3 +0.9 56 +7 +7 по сезону 1015.8 1018.0
15 22.03 штиль 0 4000 м слабый дождь 10/10 600 м
[Frnb Ns]
+6.1 +3.3 82 +5 +5 по сезону 1018.4 1020.6 +10.8
18 22.03 штиль 0 4000 м дымка {дождь} 10/8 600 м
[Sc Ac As]
+5.2 +3.7 90 +4 +4 по сезону 1019.6 1021.9
21 22.03 С 3 4000 м слабый дождь 10/10 600 м
[Frnb Ns]
+5.9 +3.7 86 +3 +3 по сезону 1019.8 1022.0

 

Местоположение метеостанции Махачкала (Дагестан, Россия): широта 43.02 долгота 47.48 высота над уровнем моря -19 м.

В архиве по умолчанию представлена погода в Махачкале за последнюю неделю. Архивные данные за месяц целиком и за предыдущие месяцы, начиная с января 2011 года, Вы можете получить, выбрав интересующий диапазон дат из раскрывающегося списка и нажав кнопку "Ввод!".

Внимание! Время в таблицах - всемирное. Для получения местного времени необходимо прибавить поправку, которая в Махачкале равна 3 ч.

Смотрите также архив погоды в соседних городах и на ближайших метеорологических станциях:

Погода в Буйнакске (Дагестан, Россия) (37 км)
Погода в Сергокале (Дагестан, Россия) (65 км)
Погода в Изберге (Дагестан, Россия) (65 км)
Погода в Куппе (Дагестан, Россия) (73 км)
Погода в Хасавюрте (Дагестан, Россия) (77 км)
Погода в Гунибе (Дагестан, Россия) (81 км)
Погода в Хунзахе (Дагестан, Россия) (81 км)
Погода в Бабаюрте (Дагестан, Россия) (86 км)
Погода в Кумухе (Дагестан, Россия) (104 км)
Погода в Шелковской (Чечня, Россия) (106 км)

Пояснения к столбцам:

Ветер - указаны скорость ветра в м/с - средняя за 10 мин, порывы в срок и между сроками (в фигурных скобках) и направление, откуда дует ветер: С - северный, СВ - северо-восточный, В - восточный, ЮВ - юго-восточный, Ю - южный, ЮЗ - юго-западный, З - западный, СЗ - северо-западный.
Видимость - горизонтальная дальность видимости в метрах или километрах. При видимости от 1 до 10 км при отсутствии осадков обычно наблюдается дымка, при ухудшении видимости до 1 км и менее - туман. В сухую погоду видимость может ухудшаться дымом, пылью или мглою.
Явления - указаны атмосферные явления, наблюдавшиеся в срок или в последний час перед сроком; фигурными скобками обозначены явления, наблюдавшиеся между сроками (за 1-3 часа до срока); квадратными скобками обозначены град или гололедные отложения с указанием их диаметра в мм.
Облачность - указаны через наклонную черту общая и нижняя облачность в баллах и высота нижней границы облаков в метрах; квадратными скобками обозначены формы облаков: Ci - перистые, Cs - перисто-слоистые, Cc - перисто-кучевые, Ac - высококучевые, As - высокослоистые, Sc - слоисто-кучевые, Ns - слоисто-дождевые, Cu - кучевые, Cb - кучево-дождевые. Подробнее классификацию облаков см. в Атласе облаков (PDF).
T - Температура воздуха - температура, измеренная на высоте 2 м над землей.
Td - Температура точки росы - температура, при понижении до которой содержащийся в воздухе водяной пар достигнет насыщения.
f - Относительная влажность воздуха - влажноcть воздуха, измеренная на высоте 2 м над землей.
Te - Эффективная температура - температура, которую ощущает одетый по сезону человек в тени. Характеристика душности погоды. При расчете учитывается влияние влажности воздуха и скорости ветра на теплоощущения человека.
Tes - Эффективная температура на солнце - температура, которую ощущает человек, с поправкой на солнечный нагрев. Характеристика знойности погоды. Зависит от высоты солнца над горизонтом, облачности и скорости ветра. Ночью, в пасмурную погоду, а также при ветре 12 м/с и более поправка равна нулю.
P - Атмосферное давление - приведенное к уровню моря атмосферное давление.
Po - Атмосферное давление - измеренное на уровне метеостанции атмосферное давление.
Tmin - Минимальная температура - минимум температуры воздуха на высоте 2 м над землей.
Tmax - Максимальная температура - максимум температуры воздуха на высоте 2 м над землей.
R - Количество осадков - Количество выпавших осадков, мм. При наведении курсора мыши на число - период времени, за который выпало указанное количество осадков.
S - Снежный покров - Высота снежного покрова, см. При наведении курсора мыши на число - состояние снежного покрова и степень покрытия местности в баллах.